User: anonymous   Login
Location: Coupvray
(48.8929°N, 2.7967°E)
Time: 00:40:57
(UTC+00:00)
Language:

Cosmos 1674 Rocket - Orbit

View from above orbital plane
View from above orbital plane
View from above satellite
View from above satellite

Ground track
Ground track

The orbit data is extracted from the following two-line orbital elements,

1 15945U 85069B   20273.49565435 +.00000095 +00000-0 +85832-5 0  9992
2 15945 082.5247 088.8283 0018186 281.4944 078.4229 14.84046041877968
Epoch (UTC): 29 September 2020 11:53:44
Eccentricity: 0.0018186
inclination: 82.5247°
perigee height: 604 km
apogee height: 629 km
right ascension of ascending node: 88.8283°
argument of perigee: 281.4944°
revolutions per day: 14.84046041
mean anomaly at epoch: 78.4229°
orbit number at epoch: 87796

The dashed part of the orbit path shows where the satellite is in the earth's shadow,  

DLR